Flag for China Weather past 2 weeks in Changchun, Jilin, China

Now
79 °F

Scattered clouds.


Feels Like: 80 °F
Forecast: 56 / 73 °F
Wind: 3 mph from Northwest

Location: Changchun Airport

Current Time: Sep 2, 2015 at 1:37:31 PM

Latest Report: Sep 2, 2015 at 1:00 PM


Visibility: N/A

Pressure: 29.86 "Hg

Humidity: 54%

Dew point: 61 °F

Location of ChangchunLocation

Historic Weather in Changchun — Graph

°F

Changchun temperature yesterday

Maximum temperature yesterday: 81 °F (at 2:00 PM)
Minimum temperature yesterday: 59 °F (at 5:00 AM)
Average temperature yesterday: 70 °F

Past Weeks' High & Low Weather Summary

 TemperatureHumidityPressure
High82 °F (Aug 19, 1:00 PM)94% (Aug 18, 10:00 PM)29.98 "Hg (Aug 18, 10:00 PM)
Low59 °F (Aug 21, 12:00 AM)47% (Aug 25, 3:00 PM)29.59 "Hg (Aug 27, 3:00 PM)
Average67 °F81%29.83 "Hg
* Reported Aug 18 12:00 Noon — Sep 2 12:00 Noon, Changchun, Weather by CustomWeather, © 2015

Note: Actual official high and low records may vary slightly from our data, if they occured in-between our weather recording intervals... More about our weather records

Advertising

Changchun weather history for previous 24 hours

 ConditionsComfort  
Time TempWeatherWind HumidityBarometerVisibility
12:00 PM
Wed, Sep 2
79 °FScattered clouds.1 mph58%29.86 "HgN/A
11:00 AM77 °FScattered clouds.1 mph57%29.89 "HgN/A
10:00 AM79 °FScattered clouds.1 mph61%29.92 "HgN/A
9:00 AM73 °FClear.1 mph74%29.92 "Hg5 mi
8:00 AM70 °FFog.1 mph83%29.92 "Hg2 mi
7:00 AM64 °FFog.1 mph88%29.92 "Hg1 mi
6:00 AM63 °FFog.1 mph94%29.92 "Hg1 mi
5:00 AM61 °FFog.1 mph94%29.92 "Hg1 mi
4:00 AM63 °FFog.1 mph88%29.92 "Hg1 mi
3:00 AM63 °FFog.1 mph94%29.92 "Hg2 mi
2:00 AM63 °FFog.1 mph94%29.92 "Hg2 mi
1:00 AM64 °FFog.1 mph88%29.92 "Hg2 mi
12:00 AM64 °FFog.1 mph88%29.92 "Hg3 mi
11:00 PM
Tue, Sep 1
64 °FClear.1 mph94%29.92 "Hg10 mi
10:00 PM66 °FClear.1 mph88%29.92 "Hg10 mi
9:00 PM68 °FClear.1 mph83%29.92 "Hg10 mi
8:00 PM70 °FPassing clouds.1 mph83%29.95 "HgN/A
7:00 PM72 °FPassing clouds.1 mph78%29.92 "HgN/A
6:00 PM75 °FScattered clouds.3 mph69%29.92 "HgN/A
5:00 PM79 °FScattered clouds.6 mph58%29.89 "HgN/A
4:00 PM81 °FScattered clouds.3 mph54%29.92 "HgN/A
3:00 PM81 °FScattered clouds.6 mph54%29.92 "HgN/A
2:00 PM81 °FScattered clouds.3 mph58%29.92 "HgN/A
1:00 PM79 °FScattered clouds.3 mph51%29.95 "HgN/A
Weather by CustomWeather, © 2015

See weather overviewHow to use our weather pages